This demonstration page uses our WeatherBlox Daily Observations layout. Learn more.

Hourly Observations for August 25, 2017

Temp ( °F °C ) Dew Point ( °F °C ) Humidity (%) Winds ( mph kmh ) Pressure ( in mb ) Visibility ( mi km ) Precip ( " mm )
12:54 am 00:54 Clear 68 20 60 15.6 76 76 S 10 17 29.98 1015 10 16.0934 0 0
1:54 am 01:54 Partly Cloudy 67 19.4 60 15.6 79 79 S 9 15 29.98 1015 10 16.0934 0 0
2:54 am 02:54 Mostly Cloudy 67 19.4 60 15.6 79 79 SSE 9 15 29.99 1016 10 16.0934 0 0
3:54 am 03:54 Partly Cloudy 67 19.4 61 16.1 81 81 S 10 17 29.98 1015 10 16.0934 0 0
4:21 am 04:21 Partly Cloudy with Nearby Thunderstorms 66 18.9 61 16.1 84 84 S 8 13 29.97 1015 10 16.0934 0 0.0254
4:40 am 04:40 Mostly Cloudy with Light Thunderstorms 67 19.4 62 16.7 84 84 SSE 6 9 29.97 1015 10 16.0934 0.01 0.254
4:54 am 04:54 Cloudy with Thunderstorms 67 19.4 61 16.1 81 81 SSE 8 13 29.98 1015 10 16.0934 0.01 0.254
5:13 am 05:13 Cloudy 67 19.4 61 16.1 81 81 SSE 7 11 30 1016 10 16.0934 0 0
5:25 am 05:25 Cloudy with Nearby Thunderstorms 67 19.4 61 16.1 81 81 SSE 8 13 30 1016 10 16.0934 0 0
5:54 am 05:54 Cloudy with Nearby Thunderstorms 67 19.4 62 16.7 84 84 SSE 12 19 29.99 1016 10 16.0934 0 0
6:09 am 06:09 Cloudy 67 19.4 62 16.7 84 84 SE 7 11 30 1016 10 16.0934 0 0
6:26 am 06:26 Cloudy with Nearby Thunderstorms 67 19.4 62 16.7 84 84 E 8 13 30.03 1017 10 16.0934 0 0
6:40 am 06:40 Cloudy 66 18.9 62 16.7 87 87 ENE 12 19 30.03 1017 10 16.0934 0 0
6:54 am 06:54 Cloudy 66 18.9 61 16.1 84 84 E 12 19 30.04 1017 10 16.0934 0 0
7:54 am 07:54 Cloudy 65 18.3 61 16.1 87 87 ESE 13 20 30.04 1017 10 16.0934 0 0
8:36 am 08:36 Cloudy with Nearby Thunderstorms 65 18.3 61 16.1 87 87 E 13 20 30.06 1018 10 16.0934 0 0
8:54 am 08:54 Cloudy 65 18.3 61 16.1 87 87 ESE 13 20 30.06 1018 10 16.0934 0 0
9:06 am 09:06 Cloudy with Nearby Thunderstorms 65 18.3 61 16.1 87 87 ESE 12 19 30.06 1018 10 16.0934 0 0
9:21 am 09:21 Cloudy 65 18.3 61 16.1 87 87 SE 14 22 30.06 1018 10 16.0934 0 0
9:54 am 09:54 Cloudy 66 18.9 61 16.1 84 84 SE 14 22 30.07 1018 10 16.0934 0 0
10:54 am 10:54 Mostly Sunny 72 22.2 63 17.2 73 73 SE 15 24 30.06 1018 10 16.0934 0 0
11:54 am 11:54 Partly Cloudy 75 23.9 64 17.8 69 69 SSE 14 22 30.05 1018 10 16.0934 0 0
12:54 pm 12:54 Sunny 80 26.7 67 19.4 64 64 SSE 17 28 30.03 1017 10 16.0934 0 0
1:54 pm 13:54 Sunny 83 28.3 66 18.9 57 57 S 17 28 30.02 1017 10 16.0934 0 0
2:54 pm 14:54 Sunny 80 26.7 65 18.3 60 60 SSE 16 26 30.01 1016 10 16.0934 0 0
3:54 pm 15:54 Mostly Cloudy 84 28.9 66 18.9 55 55 SSE 16 26 30 1016 10 16.0934 0 0
4:54 pm 16:54 Sunny 84 28.9 63 17.2 49 49 SSE 17 28 30 1016 10 16.0934 0 0
5:54 pm 17:54 Sunny 83 28.3 63 17.2 51 51 SSE 15 24 30 1016 10 16.0934 0 0
6:54 pm 18:54 Sunny 81 27.2 63 17.2 54 54 SSE 16 26 29.99 1016 10 16.0934 0 0
7:54 pm 19:54 Sunny 78 25.6 62 16.7 58 58 SSE 15 24 29.98 1015 10 16.0934 0 0
8:54 pm 20:54 Clear 75 23.9 62 16.7 64 64 SSE 14 22 30.01 1016 10 16.0934 0 0
9:54 pm 21:54 Clear 73 22.8 60 15.6 64 64 SSE 15 24 30.02 1017 10 16.0934 0 0
10:54 pm 22:54 Clear 71 21.7 60 15.6 68 68 SSE 13 20 30.05 1018 10 16.0934 0 0
11:54 pm 23:54 Clear 69 20.6 61 16.1 76 76 S 12 19 30.05 1018 10 16.0934 0 0

Powered by AerisWeather